Dewpoint
40 36 33 35 31 25 28 23 21 24 27 33 31 31 31 32 33 33 33 34 35 34 39 38 37 37 36 35 36 36 36 36 40 46 55 55 53 48 44 42 41 42 44 46
37 34 36 36 32 29 27 24 25 29 35 33 31 31 32 33 33 34 33 33 34 36 38 37 35 34 33 32 33 33 33 34 36 41 47 53 48 42 39 38 36 37 39 42
30 27 37 37 33 31 31 26 27 24 30 30 27 23 24 25 33 33 34 34 34 35 37 37 34 33 32 30 30 30 31 32 33 38 49 46 45 43 41 37 33 34 35 37
32 34 36 34 33 32 30 32 30 31 28 22 27 12 26 24 23 25 27 31 34 35 38 36 33 31 31 29 28 29 29 29 30 34 46 48 47 43 36 32 32 31 33 34
28 34 34 33 32 34 31 33 31 31 30 28 27 25 25 19 18 23 29 34 35 35 37 35 33 31 29 29 27 26 27 27 28 30 35 39 38 37 33 31 29 29 30 33
32 37 34 31 34 33 34 32 30 30 29 20 24 21 14 10 15 24 30 34 34 34 33 32 30 29 27 28 28 26 25 24 25 27 29 33 35 33 31 29 28 27 29 31
31 33 36 35 33 34 32 25 19 15 16 11 22 23 22 21 23 26 28 33 33 32 31 29 28 27 26 26 27 25 23 22 23 24 25 27 28 28 27 26 26 26 27 30
26 21 35 37 32 32 31 22 16 1 13 13 25 20 19 27 32 33 33 33 32 31 30 29 28 27 26 26 26 25 22 20 21 22 23 24 24 24 25 25 26 27 29 29
24 22 34 35 35 33 32 27 24 22 15 19 22 23 22 29 31 32 32 32 31 31 30 29 28 27 26 25 25 24 23 21 20 21 22 22 23 23 23 24 25 27 29 27
28 24 32 34 35 34 32 31 26 23 10 12 15 18 16 22 27 31 32 32 31 31 30 30 29 28 27 25 24 23 22 21 20 20 21 21 22 23 24 24 26 27 27 26
29 28 32 34 34 32 31 29 28 26 21 15 12 13 20 22 26 30 32 32 32 31 31 31 30 29 28 26 23 22 22 21 20 21 21 22 22 23 23 24 25 27 26 25
32 30 28 30 33 34 32 30 28 22 21 21 19 18 25 26 27 30 32 32 32 32 32 32 31 30 27 26 24 22 21 21 21 21 21 21 22 22 22 23 25 26 25 25
33 28 21 27 32 33 33 32 30 27 27 24 19 19 24 29 31 32 32 32 32 32 32 32 32 31 29 26 25 22 21 21 22 20 21 20 21 21 21 23 24 24 25 24
34 29 23 19 20 29 30 31 31 29 27 25 24 22 25 27 29 30 31 32 30 30 30 30 31 31 31 30 27 24 21 21 21 20 20 20 20 21 22 23 24 24 24 24
34 26 27 26 26 30 29 29 30 29 28 27 25 24 24 27 28 29 30 30 29 29 28 28 28 29 29 30 29 25 22 21 20 19 19 20 21 21 22 23 23 23 23 23
36 31 29 25 28 26 27 29 30 30 29 29 28 26 26 27 30 29 29 30 31 30 28 25 24 26 28 29 29 27 23 21 20 19 19 20 21 21 22 22 22 22 22 23
34 32 29 26 26 26 23 25 28 31 31 30 28 30 33 29 29 31 31 32 32 32 30 23 25 27 27 29 29 28 24 21 20 19 19 20 20 21 22 21 21 21 22 22
32 30 28 21 24 17 22 20 26 28 30 33 32 32 33 33 33 33 35 34 32 30 26 24 26 26 27 24 22 22 21 21 20 19 19 20 21 21 22 21 21 21 22 22
32 29 20 20 11 19 21 18 24 26 26 30 34 34 30 30 24 26 29 30 30 26 24 26 25 25 22 20 20 20 20 20 20 19 19 20 20 21 21 20 21 21 21 22
27 28 22 8 19 11 17 19 24 24 21 24 29 30 29 23 25 27 26 24 24 24 24 24 23 20 20 18 19 19 19 19 18 19 19 20 20 21 21 21 21 22 22 22
28 27 26 11 15 15 19 20 20 12 14 16 26 27 25 25 26 20 19 20 22 24 22 21 18 20 19 18 19 18 18 18 18 19 19 20 21 21 21 21 21 21 22 22
27 25 24 19 19 16 20 19 15 17 16 17 21 23 24 24 19 16 14 16 20 21 20 20 18 18 16 17 18 17 17 17 17 18 18 18 19 21 21 21 22 22 21 18
25 25 22 24 22 22 20 21 20 18 16 15 14 16 21 21 18 16 16 17 19 20 20 19 19 17 14 15 17 16 15 15 15 15 15 16 18 20 21 21 21 19 19 16
23 22 23 21 22 24 21 21 19 20 17 16 18 16 17 15 14 14 16 17 18 20 20 18 15 15 16 14 16 16 14 15 15 14 15 16 18 20 21 22 20 19 17 16
23 24 18 18 20 20 22 23 22 21 21 20 20 17 16 16 16 17 17 19 20 21 17 15 17 18 18 12 13 11 12 14 14 14 15 18 18 19 19 20 19 18 18 17
19 19 22 21 24 23 22 22 23 23 22 21 21 20 20 20 20 19 20 21 20 19 16 15 15 15 15 10 10 9 12 14 14 14 15 17 17 17 17 17 18 21 20 21
Lifted_Index
6 6 6 6 6 6 5 5 4 5 6 6 6 6 7 8 9 9 10 9 8 7 7 7 7 7 8 9 9 9 8 8 8 8 8 8 8 8 8 7 6 5 4 4
6 6 6 6 6 6 5 5 4 5 7 7 6 5 6 7 8 9 9 10 9 9 9 8 8 7 8 9 9 9 8 8 8 8 8 8 8 8 7 7 6 5 4 5
6 6 7 7 7 6 6 5 5 6 6 6 5 4 4 5 7 8 9 10 10 10 10 9 9 8 8 9 9 9 8 9 9 8 7 7 7 7 7 6 5 5 6 6
6 7 7 7 6 6 6 6 6 6 6 5 5 4 4 4 5 6 8 9 10 10 10 9 9 8 8 9 9 9 9 9 9 8 7 7 7 6 6 6 6 6 6 7
6 6 7 7 7 6 6 7 7 7 6 5 4 4 4 4 5 6 7 8 9 9 10 9 9 8 8 9 9 9 10 10 9 8 7 7 6 6 6 6 6 7 7 7
6 6 7 7 7 7 7 7 6 6 5 4 4 5 5 5 5 6 7 8 8 9 9 9 9 8 8 8 9 10 10 10 10 9 9 8 7 7 7 7 7 8 8 8
6 6 6 6 6 6 6 5 4 3 2 3 4 5 5 6 7 7 7 8 8 8 8 9 8 8 8 8 9 10 10 10 10 10 10 10 9 9 9 9 9 10 10 11
4 4 5 5 6 5 5 5 3 2 2 3 5 5 6 7 8 8 7 7 8 8 8 8 8 8 8 9 10 10 10 11 11 11 10 10 10 10 10 10 11 12 13 14
4 4 5 5 5 5 5 5 5 4 3 3 4 6 7 8 8 7 7 7 7 7 7 7 8 8 8 9 10 10 10 10 10 10 10 10 10 10 11 11 12 13 15 15
4 4 4 4 4 5 5 5 5 5 3 2 3 5 7 7 7 7 6 6 6 6 7 7 7 8 8 9 9 9 9 9 9 9 9 9 10 10 11 12 12 13 15 15
4 4 4 4 4 5 5 5 6 5 4 3 3 5 7 8 7 6 5 5 5 5 6 7 7 7 7 8 8 8 8 8 8 8 8 9 9 10 11 11 12 13 14 15
4 4 4 4 5 5 5 5 6 6 5 5 5 6 7 7 6 5 5 4 4 5 6 6 7 7 7 7 7 7 8 8 8 8 8 9 9 10 10 10 11 13 14 15
4 4 4 4 5 5 5 5 5 6 6 6 6 6 7 7 5 4 4 4 4 5 5 5 6 6 7 7 7 8 8 8 8 8 8 8 9 9 9 10 11 13 14 15
4 4 4 4 5 5 5 5 5 6 6 6 6 6 7 6 5 5 4 4 4 4 4 4 4 5 7 8 8 8 8 8 8 8 8 8 8 9 9 10 11 13 14 15
4 4 4 5 5 5 5 5 5 6 6 6 6 6 6 6 5 5 4 4 3 3 3 3 3 5 7 8 8 8 8 8 8 8 8 8 8 8 9 10 11 13 14 15
3 3 3 4 4 5 5 5 5 6 6 5 5 5 5 5 5 5 4 4 3 3 2 3 3 5 6 7 8 8 8 7 7 7 7 7 7 8 9 9 11 12 14 15
2 2 3 3 3 4 4 5 5 5 5 5 5 4 4 4 4 4 3 3 3 2 2 3 4 5 6 7 7 7 7 7 7 7 7 7 7 7 8 9 10 12 13 15
2 2 2 3 3 3 4 5 5 4 4 4 4 4 4 4 4 4 3 3 3 3 3 4 5 6 7 7 8 8 8 8 7 7 7 7 7 7 8 9 10 12 14 15
2 2 3 3 2 2 3 4 4 4 4 4 4 4 4 4 4 4 4 4 4 4 5 5 6 7 8 8 8 8 8 8 8 7 7 8 8 8 9 9 11 12 14 15
2 2 3 3 2 2 3 4 4 4 3 4 4 4 4 4 4 4 5 5 5 5 6 7 7 8 8 8 8 8 8 8 8 8 8 8 8 8 9 10 11 13 14 15
2 2 2 2 2 2 4 5 4 3 3 4 5 5 5 5 5 5 6 6 6 6 7 7 7 8 8 8 7 7 7 7 7 7 7 7 8 8 9 10 12 13 14 15
2 2 2 2 2 3 4 5 4 4 4 5 5 5 5 6 6 6 7 7 7 7 7 7 7 7 7 7 7 7 7 7 7 6 7 7 7 9 10 10 11 12 13 13
2 2 2 2 2 3 4 4 4 4 5 5 5 6 6 6 6 7 7 7 7 7 7 7 7 7 7 7 7 6 6 6 6 6 6 7 7 9 10 11 11 11 12 12
3 3 3 3 3 3 4 4 4 4 5 5 5 6 6 6 6 7 7 7 7 7 7 7 7 7 7 7 6 6 6 5 5 5 5 6 7 8 9 10 11 11 12 12
3 3 3 3 3 4 4 4 4 4 5 5 5 6 6 6 6 6 6 6 6 6 6 7 7 7 7 6 6 5 5 4 4 3 3 4 5 7 8 10 11 12 13 14
3 3 3 3 3 3 4 4 4 5 5 5 5 5 6 6 6 6 6 6 6 6 7 7 7 7 7 6 6 5 4 4 3 3 3 3 5 6 8 9 11 14 15 15